map of MMX home
MMX - Airport
Location
City:  Malmö, Skåne län, Sweden
Name:Malmö-Sturup Airport
ICAO:ESMS
IATA:MMX

Details
Type:Airport (Aerodrome, Airfield)
Use:Public/Civil, International (customs port of entry)
Latitude:55°31'49"N (55.530193)
Longitude:13°22'18"E (13.371639)
Datum:WGS 1984
Elevation:236 ft (72 m)
Variation:4.10°E (WMM2015 magnetic declination)
0.15° annual change
Runways:2
Longest:9186 × 148 ft (2800 × 45 m), paved

Time
Time Zone:UTC+1 (DST+2)
Local Time:

Weather
METAR:ESMS 122120Z 22010KT 4200 BR OVC003 11/10 Q1012
TAF:ESMS 121709Z 1218/1318 17008KT 6000 BKN012
TEMPO 1218/1222 2000 RADZ BR BKN003
TEMPO 1222/1309 1200 BR BKN003
TEMPO 1309/1312 3000 BR BKN006
BECMG 1312/1314 SCT012
TEMPO 1316/1318 4000 SHRA BR BKN008 SCT012CB

Related Locations
Nearby:
Farthest:CHT: 11512 mi / 18526 km
Waitangi [Tuuta], CIT, NZ

Find:

   beyond  
but within

Other Information
Maps:
NOTAMs:
Links:
Sources:

  
  • flag of Sweden
  

Sectional Chart

Flight Planning
at skyvector.com

Satellite Image

Google Maps Satellite view

 

Copyright © 2004-2018 Karl L. Swartz. All rights reserved.
The Great Circle Mapper name and logo are trademarks of the Great Circle Mapper.
All other trademarks mentioned herein belong to their respective owners.
Please see credits for attibutions and further copyright information.

  Follow gcmap on Facebook Follow gcmap on Twitter Follow gcmap on Google+ GCmap on LinkedIn

hCard Microformat

Geo Microformat